User: anonymous   Login
Location: Arborea
(39.7744°N, 8.5819°E)
Time: 18:10:04
(UTC+00:00)
Language:

PSLV R/B - Orbit

View from above orbital plane
View from above orbital plane
View from above satellite
View from above satellite

Ground track
Ground track

The orbit data is extracted from the following two-line orbital elements,

1 26960U 01049D   22021.01973745  .00001347  00000-0  86179-4 0  9990
2 26960  97.8220  36.1053 0052154 218.3547 141.3968 15.09339011107077
Epoch (UTC): 21 January 2022 00:28:25
Eccentricity: 0.0052154
inclination: 97.8220°
perigee height: 502 km
apogee height: 574 km
right ascension of ascending node: 36.1053°
argument of perigee: 218.3547°
revolutions per day: 15.09339011
mean anomaly at epoch: 141.3968°
orbit number at epoch: 10707

The dashed part of the orbit path shows where the satellite is in the earth's shadow,  

DLR